Year,Month,Day,Hour,Minute,Value (Times are PST for temperature in C)
2016,04,25,00,00,8.20
2016,04,25,00,01,8.20
2016,04,25,00,02,8.20
2016,04,25,00,03,8.20
2016,04,25,00,04,8.20
2016,04,25,00,05,8.20
2016,04,25,00,06,8.20
2016,04,25,00,07,8.10
2016,04,25,00,08,8.10
2016,04,25,00,09,8.10
2016,04,25,00,10,8.10
2016,04,25,00,11,8.10
2016,04,25,00,12,8.10
2016,04,25,00,13,8.10
2016,04,25,00,14,8.00
2016,04,25,00,15,8.00
2016,04,25,00,16,8.00
2016,04,25,00,17,8.00
2016,04,25,00,18,8.00
2016,04,25,00,19,7.90
2016,04,25,00,20,7.90
2016,04,25,00,21,7.90
2016,04,25,00,22,8.00
2016,04,25,00,23,8.00
2016,04,25,00,24,8.00
2016,04,25,00,25,8.00
2016,04,25,00,26,8.00
2016,04,25,00,27,8.00
2016,04,25,00,28,8.00
2016,04,25,00,29,8.00
2016,04,25,00,30,8.10
2016,04,25,00,31,8.10
2016,04,25,00,32,8.10
2016,04,25,00,33,8.00
2016,04,25,00,34,8.00
2016,04,25,00,35,8.00
2016,04,25,00,36,8.00
2016,04,25,00,37,8.00
2016,04,25,00,38,8.00
2016,04,25,00,39,8.00
2016,04,25,00,40,8.00
2016,04,25,00,41,8.00
2016,04,25,00,42,8.00
2016,04,25,00,43,7.90
2016,04,25,00,44,7.90
2016,04,25,00,45,7.90
2016,04,25,00,46,7.90
2016,04,25,00,47,7.90
2016,04,25,00,48,7.90
2016,04,25,00,49,7.90
2016,04,25,00,50,7.90
2016,04,25,00,51,7.90
2016,04,25,00,52,7.90
2016,04,25,00,53,7.90
2016,04,25,00,54,7.90
2016,04,25,00,55,7.90
2016,04,25,00,56,7.90
2016,04,25,00,57,8.00
2016,04,25,00,58,8.00
2016,04,25,00,59,8.00
2016,04,25,01,00,8.00
2016,04,25,01,01,8.00
2016,04,25,01,02,8.00
2016,04,25,01,03,8.00
2016,04,25,01,04,8.00
2016,04,25,01,05,8.00
2016,04,25,01,06,8.00
2016,04,25,01,07,8.00
2016,04,25,01,08,8.00
2016,04,25,01,09,7.90
2016,04,25,01,10,7.90
2016,04,25,01,11,7.90
2016,04,25,01,12,7.90
2016,04,25,01,13,7.90
2016,04,25,01,14,7.90
2016,04,25,01,15,7.90
2016,04,25,01,16,7.90
2016,04,25,01,17,7.90
2016,04,25,01,18,7.90
2016,04,25,01,19,7.90
2016,04,25,01,20,7.90
2016,04,25,01,21,7.90
2016,04,25,01,22,7.90
2016,04,25,01,23,7.80
2016,04,25,01,24,7.80
2016,04,25,01,25,7.80
2016,04,25,01,26,7.80
2016,04,25,01,27,7.90
2016,04,25,01,28,7.90
2016,04,25,01,29,7.80
2016,04,25,01,30,7.80
2016,04,25,01,31,7.80
2016,04,25,01,32,7.80
2016,04,25,01,33,7.80
2016,04,25,01,34,7.80
2016,04,25,01,35,7.80
2016,04,25,01,36,7.80
2016,04,25,01,37,7.80
2016,04,25,01,38,7.70
2016,04,25,01,39,7.70
2016,04,25,01,40,7.70
2016,04,25,01,41,7.70
2016,04,25,01,42,7.70
2016,04,25,01,43,7.70
2016,04,25,01,44,7.70
2016,04,25,01,45,7.70
2016,04,25,01,46,7.70
2016,04,25,01,47,7.70
2016,04,25,01,48,7.70
2016,04,25,01,49,7.60
2016,04,25,01,50,7.60
2016,04,25,01,51,7.60
2016,04,25,01,52,7.60
2016,04,25,01,53,7.60
2016,04,25,01,54,7.50
2016,04,25,01,55,7.50
2016,04,25,01,56,7.50
2016,04,25,01,57,7.50
2016,04,25,01,58,7.50
2016,04,25,01,59,7.40
2016,04,25,02,00,7.40
2016,04,25,02,01,7.40
2016,04,25,02,02,7.40
2016,04,25,02,03,7.40
2016,04,25,02,04,7.40
2016,04,25,02,05,7.40
2016,04,25,02,06,7.30
2016,04,25,02,07,7.30
2016,04,25,02,08,7.30
2016,04,25,02,09,7.30
2016,04,25,02,10,7.30
2016,04,25,02,11,7.30
2016,04,25,02,12,7.30
2016,04,25,02,13,7.30
2016,04,25,02,14,7.30
2016,04,25,02,15,7.40
2016,04,25,02,16,7.40
2016,04,25,02,17,7.40
2016,04,25,02,18,7.40
2016,04,25,02,19,7.40
2016,04,25,02,20,7.30
2016,04,25,02,21,7.30
2016,04,25,02,22,7.30
2016,04,25,02,23,7.30
2016,04,25,02,24,7.30
2016,04,25,02,25,7.30
2016,04,25,02,26,7.30
2016,04,25,02,27,7.30
2016,04,25,02,28,7.30
2016,04,25,02,29,7.20
2016,04,25,02,30,7.20
2016,04,25,02,31,7.20
2016,04,25,02,32,7.20
2016,04,25,02,33,7.20
2016,04,25,02,34,7.20
2016,04,25,02,35,7.20
2016,04,25,02,36,7.20
2016,04,25,02,37,7.20
2016,04,25,02,38,7.20
2016,04,25,02,39,7.20
2016,04,25,02,40,7.20
2016,04,25,02,41,7.20
2016,04,25,02,42,7.20
2016,04,25,02,43,7.20
2016,04,25,02,44,7.20
2016,04,25,02,45,7.20
2016,04,25,02,46,7.20
2016,04,25,02,47,7.20
2016,04,25,02,48,7.20
2016,04,25,02,49,7.20
2016,04,25,02,50,7.20
2016,04,25,02,51,7.20
2016,04,25,02,52,7.20
2016,04,25,02,53,7.20
2016,04,25,02,54,7.20
2016,04,25,02,55,7.20
2016,04,25,02,56,7.20
2016,04,25,02,57,7.20
2016,04,25,02,58,7.20
2016,04,25,02,59,7.20
2016,04,25,03,00,7.20
2016,04,25,03,01,7.20
2016,04,25,03,02,7.30
2016,04,25,03,03,7.30
2016,04,25,03,04,7.30
2016,04,25,03,05,7.30
2016,04,25,03,06,7.30
2016,04,25,03,07,7.30
2016,04,25,03,08,7.30
2016,04,25,03,09,7.30
2016,04,25,03,10,7.20
2016,04,25,03,11,7.20
2016,04,25,03,12,7.20
2016,04,25,03,13,7.20
2016,04,25,03,14,7.20
2016,04,25,03,15,7.20
2016,04,25,03,16,7.20
2016,04,25,03,17,7.20
2016,04,25,03,18,7.20
2016,04,25,03,19,7.20
2016,04,25,03,20,7.20
2016,04,25,03,21,7.10
2016,04,25,03,22,7.10
2016,04,25,03,23,7.10
2016,04,25,03,24,7.10
2016,04,25,03,25,7.10
2016,04,25,03,26,7.10
2016,04,25,03,27,7.10
2016,04,25,03,28,7.10
2016,04,25,03,29,7.10
2016,04,25,03,30,7.10
2016,04,25,03,31,7.10
2016,04,25,03,32,7.10
2016,04,25,03,33,7.10
2016,04,25,03,34,7.10
2016,04,25,03,35,7.10
2016,04,25,03,36,7.10
2016,04,25,03,37,7.10
2016,04,25,03,38,7.10
2016,04,25,03,39,7.10
2016,04,25,03,40,7.10
2016,04,25,03,41,7.10
2016,04,25,03,42,7.10
2016,04,25,03,43,7.10
2016,04,25,03,44,7.10
2016,04,25,03,45,7.10
2016,04,25,03,46,7.10
2016,04,25,03,47,7.10
2016,04,25,03,48,7.10
2016,04,25,03,49,7.10
2016,04,25,03,50,7.00
2016,04,25,03,51,7.00
2016,04,25,03,52,7.00
2016,04,25,03,53,7.00
2016,04,25,03,54,7.00
2016,04,25,03,55,7.00
2016,04,25,03,56,7.00
2016,04,25,03,57,7.00
2016,04,25,03,58,7.00
2016,04,25,03,59,7.00
2016,04,25,04,00,7.00
2016,04,25,04,01,7.00
2016,04,25,04,02,7.00
2016,04,25,04,03,7.00
2016,04,25,04,04,7.00
2016,04,25,04,05,7.00
2016,04,25,04,06,7.00
2016,04,25,04,07,7.00
2016,04,25,04,08,6.90
2016,04,25,04,09,6.90
2016,04,25,04,10,6.90
2016,04,25,04,11,6.90
2016,04,25,04,12,6.90
2016,04,25,04,13,6.90
2016,04,25,04,14,6.90
2016,04,25,04,15,6.90
2016,04,25,04,16,6.90
2016,04,25,04,17,6.90
2016,04,25,04,18,6.90
2016,04,25,04,19,6.90
2016,04,25,04,20,6.90
2016,04,25,04,21,6.90
2016,04,25,04,22,6.90
2016,04,25,04,23,7.00
2016,04,25,04,24,7.00
2016,04,25,04,25,7.00
2016,04,25,04,26,7.10
2016,04,25,04,27,7.10
2016,04,25,04,28,7.10
2016,04,25,04,29,7.10
2016,04,25,04,30,7.10
2016,04,25,04,31,7.10
2016,04,25,04,32,7.10
2016,04,25,04,33,7.10
2016,04,25,04,34,7.10
2016,04,25,04,35,7.10
2016,04,25,04,36,7.10
2016,04,25,04,37,7.10
2016,04,25,04,38,7.10
2016,04,25,04,39,7.10
2016,04,25,04,40,7.10
2016,04,25,04,41,7.10
2016,04,25,04,42,7.10
2016,04,25,04,43,7.00
2016,04,25,04,44,7.00
2016,04,25,04,45,7.00
2016,04,25,04,46,7.00
2016,04,25,04,47,7.00
2016,04,25,04,48,7.00
2016,04,25,04,49,7.00
2016,04,25,04,50,7.00
2016,04,25,04,51,6.90
2016,04,25,04,52,6.90
2016,04,25,04,53,6.90
2016,04,25,04,54,7.00
2016,04,25,04,55,7.00
2016,04,25,04,56,7.00
2016,04,25,04,57,7.00
2016,04,25,04,58,7.00
2016,04,25,04,59,7.00
2016,04,25,05,00,7.00
2016,04,25,05,01,7.00
2016,04,25,05,02,7.00
2016,04,25,05,03,6.90
2016,04,25,05,04,6.90
2016,04,25,05,05,6.90
2016,04,25,05,06,6.90
2016,04,25,05,07,6.90
2016,04,25,05,08,6.90
2016,04,25,05,09,6.90
2016,04,25,05,10,6.90
2016,04,25,05,11,6.90
2016,04,25,05,12,6.90
2016,04,25,05,13,6.90
2016,04,25,05,14,6.90
2016,04,25,05,15,6.90
2016,04,25,05,16,6.90
2016,04,25,05,17,7.00
2016,04,25,05,18,7.00
2016,04,25,05,19,7.00
2016,04,25,05,20,7.00
2016,04,25,05,21,7.00
2016,04,25,05,22,7.00
2016,04,25,05,23,7.10
2016,04,25,05,24,7.00
2016,04,25,05,25,7.10
2016,04,25,05,26,7.00
2016,04,25,05,27,7.00
2016,04,25,05,28,7.00
2016,04,25,05,29,7.00
2016,04,25,05,30,7.00
2016,04,25,05,31,7.00
2016,04,25,05,32,7.00
2016,04,25,05,33,7.00
2016,04,25,05,34,6.90
2016,04,25,05,35,6.90
2016,04,25,05,36,6.90
2016,04,25,05,37,6.90
2016,04,25,05,38,6.90
2016,04,25,05,39,6.90
2016,04,25,05,40,6.90
2016,04,25,05,41,6.90
2016,04,25,05,42,6.90
2016,04,25,05,43,6.90
2016,04,25,05,44,6.90
2016,04,25,05,45,6.90
2016,04,25,05,46,6.80
2016,04,25,05,47,6.80
2016,04,25,05,48,6.80
2016,04,25,05,49,6.80
2016,04,25,05,50,6.70
2016,04,25,05,51,6.70
2016,04,25,05,52,6.70
2016,04,25,05,53,6.70
2016,04,25,05,54,6.70
2016,04,25,05,55,6.70
2016,04,25,05,56,6.70
2016,04,25,05,57,6.70
2016,04,25,05,58,6.70
2016,04,25,05,59,6.70
2016,04,25,06,00,6.70
2016,04,25,06,01,6.60
2016,04,25,06,02,6.60
2016,04,25,06,03,6.60
2016,04,25,06,04,6.50
2016,04,25,06,05,6.50
2016,04,25,06,06,6.50
2016,04,25,06,07,6.40
2016,04,25,06,08,6.40
2016,04,25,06,09,6.40
2016,04,25,06,10,6.40
2016,04,25,06,11,6.30
2016,04,25,06,12,6.30
2016,04,25,06,13,6.30
2016,04,25,06,14,6.30
2016,04,25,06,15,6.30
2016,04,25,06,16,6.20
2016,04,25,06,17,6.20
2016,04,25,06,18,6.20
2016,04,25,06,19,6.20
2016,04,25,06,20,6.20
2016,04,25,06,21,6.10
2016,04,25,06,22,6.10
2016,04,25,06,23,6.10
2016,04,25,06,24,6.10
2016,04,25,06,25,6.10
2016,04,25,06,26,6.00
2016,04,25,06,27,6.00
2016,04,25,06,28,6.00
2016,04,25,06,29,5.90
2016,04,25,06,30,5.90
2016,04,25,06,31,5.90
2016,04,25,06,32,5.90
2016,04,25,06,33,5.80
2016,04,25,06,34,5.80
2016,04,25,06,35,5.80
2016,04,25,06,36,5.80
2016,04,25,06,37,5.80
2016,04,25,06,38,5.80
2016,04,25,06,39,5.80
2016,04,25,06,40,5.80
2016,04,25,06,41,5.80
2016,04,25,06,42,5.80
2016,04,25,06,43,5.80
2016,04,25,06,44,5.80
2016,04,25,06,45,5.80
2016,04,25,06,46,5.80
2016,04,25,06,47,5.80
2016,04,25,06,48,5.80
2016,04,25,06,49,5.80
2016,04,25,06,50,5.80
2016,04,25,06,51,5.80
2016,04,25,06,52,5.80
2016,04,25,06,53,5.80
2016,04,25,06,54,5.80
2016,04,25,06,55,5.80
2016,04,25,06,56,5.80
2016,04,25,06,57,5.80
2016,04,25,06,58,5.80
2016,04,25,06,59,5.80
2016,04,25,07,00,5.80
2016,04,25,07,01,5.80
2016,04,25,07,02,5.80
2016,04,25,07,03,5.90
2016,04,25,07,04,5.90
2016,04,25,07,05,5.90
2016,04,25,07,06,5.90
2016,04,25,07,07,6.00
2016,04,25,07,08,6.00
2016,04,25,07,09,6.10
2016,04,25,07,10,6.10
2016,04,25,07,11,6.10
2016,04,25,07,12,6.10
2016,04,25,07,13,6.10
2016,04,25,07,14,6.20
2016,04,25,07,15,6.20
2016,04,25,07,16,6.20
2016,04,25,07,17,6.30
2016,04,25,07,18,6.30
2016,04,25,07,19,6.30
2016,04,25,07,20,6.30
2016,04,25,07,21,6.30
2016,04,25,07,22,6.30
2016,04,25,07,23,6.30
2016,04,25,07,24,6.30
2016,04,25,07,25,6.40
2016,04,25,07,26,6.40
2016,04,25,07,27,6.40
2016,04,25,07,28,6.50
2016,04,25,07,29,6.50
2016,04,25,07,30,6.60
2016,04,25,07,31,6.60
2016,04,25,07,32,6.60
2016,04,25,07,33,6.60
2016,04,25,07,34,6.70
2016,04,25,07,35,6.70
2016,04,25,07,36,6.70
2016,04,25,07,37,6.70
2016,04,25,07,38,6.70
2016,04,25,07,39,6.80
2016,04,25,07,40,6.80
2016,04,25,07,41,6.80
2016,04,25,07,42,6.90
2016,04,25,07,43,6.90
2016,04,25,07,44,6.90
2016,04,25,07,45,7.00
2016,04,25,07,46,7.00
2016,04,25,07,47,7.00
2016,04,25,07,48,7.10
2016,04,25,07,49,7.10
2016,04,25,07,50,7.20
2016,04,25,07,51,7.20
2016,04,25,07,52,7.20
2016,04,25,07,53,7.20
2016,04,25,07,54,7.30
2016,04,25,07,55,7.30
2016,04,25,07,56,7.40
2016,04,25,07,57,7.40
2016,04,25,07,58,7.40
2016,04,25,07,59,7.40
2016,04,25,08,00,7.50
2016,04,25,08,01,7.50
2016,04,25,08,02,7.50
2016,04,25,08,03,7.60
2016,04,25,08,04,7.60
2016,04,25,08,05,7.60
2016,04,25,08,06,7.60
2016,04,25,08,07,7.60
2016,04,25,08,08,7.60
2016,04,25,08,09,7.60
2016,04,25,08,10,7.60
2016,04,25,08,11,7.60
2016,04,25,08,12,7.70
2016,04,25,08,13,7.70
2016,04,25,08,14,7.80
2016,04,25,08,15,7.80
2016,04,25,08,16,7.90
2016,04,25,08,17,7.90
2016,04,25,08,18,8.00
2016,04,25,08,19,8.00
2016,04,25,08,20,8.00
2016,04,25,08,21,8.10
2016,04,25,08,22,8.10
2016,04,25,08,23,8.10
2016,04,25,08,24,8.10
2016,04,25,08,25,8.20
2016,04,25,08,26,8.20
2016,04,25,08,27,8.30
2016,04,25,08,28,8.30
2016,04,25,08,29,8.40
2016,04,25,08,30,8.40
2016,04,25,08,31,8.50
2016,04,25,08,32,8.50
2016,04,25,08,33,8.50
2016,04,25,08,34,8.60
2016,04,25,08,35,8.60
2016,04,25,08,36,8.70
2016,04,25,08,37,8.70
2016,04,25,08,38,8.70
2016,04,25,08,39,8.70
2016,04,25,08,40,8.70
2016,04,25,08,41,8.80
2016,04,25,08,42,8.80
2016,04,25,08,43,8.80
2016,04,25,08,44,8.90
2016,04,25,08,45,8.90
2016,04,25,08,46,8.90
2016,04,25,08,47,8.90
2016,04,25,08,48,8.90
2016,04,25,08,49,8.90
2016,04,25,08,50,8.90
2016,04,25,08,51,8.90
2016,04,25,08,52,8.90
2016,04,25,08,53,8.90
2016,04,25,08,54,9.00
2016,04,25,08,55,9.00
2016,04,25,08,56,9.10
2016,04,25,08,57,9.10
2016,04,25,08,58,9.10
2016,04,25,08,59,9.10
2016,04,25,09,00,9.10
2016,04,25,09,01,9.20
2016,04,25,09,02,9.20
2016,04,25,09,03,9.30
2016,04,25,09,04,9.30
2016,04,25,09,05,9.30
2016,04,25,09,06,9.40
2016,04,25,09,07,9.40
2016,04,25,09,08,9.30
2016,04,25,09,09,9.30
2016,04,25,09,10,9.40
2016,04,25,09,11,9.40
2016,04,25,09,12,9.40
2016,04,25,09,13,9.40
2016,04,25,09,14,9.40
2016,04,25,09,15,9.40
2016,04,25,09,16,9.50
2016,04,25,09,17,9.50
2016,04,25,09,18,9.60
2016,04,25,09,19,9.60
2016,04,25,09,20,9.60
2016,04,25,09,21,9.70
2016,04,25,09,22,9.70
2016,04,25,09,23,9.70
2016,04,25,09,24,9.80
2016,04,25,09,25,9.80
2016,04,25,09,26,9.90
2016,04,25,09,27,9.90
2016,04,25,09,28,9.90
2016,04,25,09,29,9.90
2016,04,25,09,30,9.90
2016,04,25,09,31,9.80
2016,04,25,09,32,9.80
2016,04,25,09,33,9.80
2016,04,25,09,34,9.80
2016,04,25,09,35,9.80
2016,04,25,09,36,9.80
2016,04,25,09,37,9.90
2016,04,25,09,38,9.90
2016,04,25,09,39,9.90
2016,04,25,09,40,9.90
2016,04,25,09,41,9.90
2016,04,25,09,42,10.00
2016,04,25,09,43,10.00
2016,04,25,09,44,10.10
2016,04,25,09,45,10.10
2016,04,25,09,46,10.10
2016,04,25,09,47,10.10
2016,04,25,09,48,10.10
2016,04,25,09,49,10.10
2016,04,25,09,50,10.10
2016,04,25,09,51,10.10
2016,04,25,09,52,10.10
2016,04,25,09,53,10.20
2016,04,25,09,54,10.20
2016,04,25,09,55,10.20
2016,04,25,09,56,10.20
2016,04,25,09,57,10.30
2016,04,25,09,58,10.30
2016,04,25,09,59,10.30
2016,04,25,10,00,10.30
2016,04,25,10,01,10.30
2016,04,25,10,02,10.40
2016,04,25,10,03,10.40
2016,04,25,10,04,10.30
2016,04,25,10,05,10.20
2016,04,25,10,06,10.20
2016,04,25,10,07,10.20
2016,04,25,10,08,10.20
2016,04,25,10,09,10.30
2016,04,25,10,10,10.30
2016,04,25,10,11,10.40
2016,04,25,10,12,10.40
2016,04,25,10,13,10.50
2016,04,25,10,14,10.50
2016,04,25,10,15,10.40
2016,04,25,10,16,10.40
2016,04,25,10,17,10.30
2016,04,25,10,18,10.30
2016,04,25,10,19,10.30
2016,04,25,10,20,10.30
2016,04,25,10,21,10.30
2016,04,25,10,22,10.40
2016,04,25,10,23,10.50
2016,04,25,10,24,10.50
2016,04,25,10,25,10.60
2016,04,25,10,26,10.60
2016,04,25,10,27,10.70
2016,04,25,10,28,10.70
2016,04,25,10,29,10.70
2016,04,25,10,30,10.80
2016,04,25,10,31,10.80
2016,04,25,10,32,10.80
2016,04,25,10,33,10.80
2016,04,25,10,34,10.80
2016,04,25,10,35,10.80
2016,04,25,10,36,10.90
2016,04,25,10,37,10.90
2016,04,25,10,38,11.00
2016,04,25,10,39,11.10
2016,04,25,10,40,11.00
2016,04,25,10,41,11.00
2016,04,25,10,42,10.90
2016,04,25,10,43,10.90
2016,04,25,10,44,11.00
2016,04,25,10,45,11.00
2016,04,25,10,46,11.10
2016,04,25,10,47,11.20
2016,04,25,10,48,11.30
2016,04,25,10,49,11.30
2016,04,25,10,50,11.40
2016,04,25,10,51,11.50
2016,04,25,10,52,11.50
2016,04,25,10,53,11.60
2016,04,25,10,54,11.50
2016,04,25,10,55,11.50
2016,04,25,10,56,11.50
2016,04,25,10,57,11.50
2016,04,25,10,58,11.40
2016,04,25,10,59,11.40
2016,04,25,11,00,11.30
2016,04,25,11,01,11.30
2016,04,25,11,02,11.30
2016,04,25,11,03,11.30
2016,04,25,11,04,11.40
2016,04,25,11,05,11.40
2016,04,25,11,06,11.50
2016,04,25,11,07,11.60
2016,04,25,11,08,11.60
2016,04,25,11,09,11.70
2016,04,25,11,10,11.60
2016,04,25,11,11,11.60
2016,04,25,11,12,11.60
2016,04,25,11,13,11.60
2016,04,25,11,14,11.60
2016,04,25,11,15,11.60
2016,04,25,11,16,11.60
2016,04,25,11,17,11.70
2016,04,25,11,18,11.80
2016,04,25,11,19,11.80
2016,04,25,11,20,11.90
2016,04,25,11,21,11.90
2016,04,25,11,22,12.00
2016,04,25,11,23,12.00
2016,04,25,11,24,12.00
2016,04,25,11,25,11.90
2016,04,25,11,26,11.70
2016,04,25,11,27,11.60
2016,04,25,11,28,11.50
2016,04,25,11,29,11.40
2016,04,25,11,30,11.30
2016,04,25,11,31,11.30
2016,04,25,11,32,11.40
2016,04,25,11,33,11.50
2016,04,25,11,34,11.60
2016,04,25,11,35,11.70
2016,04,25,11,36,11.70
2016,04,25,11,37,11.70
2016,04,25,11,38,11.80
2016,04,25,11,39,11.90
2016,04,25,11,40,11.90
2016,04,25,11,41,12.00
2016,04,25,11,42,11.90
2016,04,25,11,43,11.90
2016,04,25,11,44,11.90
2016,04,25,11,45,11.90
2016,04,25,11,46,12.00
2016,04,25,11,47,12.10
2016,04,25,11,48,12.10
2016,04,25,11,49,12.10
2016,04,25,11,50,12.10
2016,04,25,11,51,12.10
2016,04,25,11,52,12.00
2016,04,25,11,53,12.00
2016,04,25,11,54,12.10
2016,04,25,11,55,12.10
2016,04,25,11,56,12.10
2016,04,25,11,57,12.10
2016,04,25,11,58,12.20
2016,04,25,11,59,12.20
2016,04,25,12,00,12.30
2016,04,25,12,01,12.30
2016,04,25,12,02,12.40
2016,04,25,12,03,12.40
2016,04,25,12,04,12.50
2016,04,25,12,05,12.50
2016,04,25,12,06,12.50
2016,04,25,12,07,12.60
2016,04,25,12,08,12.60
2016,04,25,12,09,12.50
2016,04,25,12,10,12.50
2016,04,25,12,11,12.40
2016,04,25,12,12,12.30
2016,04,25,12,13,12.30
2016,04,25,12,14,12.30
2016,04,25,12,15,12.40
2016,04,25,12,16,12.40
2016,04,25,12,17,12.50
2016,04,25,12,18,12.50
2016,04,25,12,19,12.60
2016,04,25,12,20,12.60
2016,04,25,12,21,12.50
2016,04,25,12,22,12.50
2016,04,25,12,23,12.40
2016,04,25,12,24,12.50
2016,04,25,12,25,12.50
2016,04,25,12,26,12.60
2016,04,25,12,27,12.60
2016,04,25,12,28,12.70
2016,04,25,12,29,12.80
2016,04,25,12,30,12.80
2016,04,25,12,31,12.90
2016,04,25,12,32,12.90
2016,04,25,12,33,12.90
2016,04,25,12,34,12.90
2016,04,25,12,35,13.00
2016,04,25,12,36,13.00
2016,04,25,12,37,13.00
2016,04,25,12,38,12.80
2016,04,25,12,39,12.70
2016,04,25,12,40,12.60
2016,04,25,12,41,12.50
2016,04,25,12,42,12.50
2016,04,25,12,43,12.50
2016,04,25,12,44,12.50
2016,04,25,12,45,12.50
2016,04,25,12,46,12.50
2016,04,25,12,47,12.50
2016,04,25,12,48,12.60
2016,04,25,12,49,12.60
2016,04,25,12,50,12.60
2016,04,25,12,51,12.70
2016,04,25,12,52,12.70
2016,04,25,12,53,12.70
2016,04,25,12,54,12.60
2016,04,25,12,55,12.60
2016,04,25,12,56,12.70
2016,04,25,12,57,12.70
2016,04,25,12,58,12.80
2016,04,25,12,59,12.80
2016,04,25,13,00,12.70
2016,04,25,13,01,12.80
2016,04,25,13,02,12.80
2016,04,25,13,03,12.80
2016,04,25,13,04,12.90
2016,04,25,13,05,12.90
2016,04,25,13,06,13.00
2016,04,25,13,07,13.10
2016,04,25,13,08,13.20
2016,04,25,13,09,13.20
2016,04,25,13,10,13.20
2016,04,25,13,11,13.20
2016,04,25,13,12,13.20
2016,04,25,13,13,13.10
2016,04,25,13,14,13.10
2016,04,25,13,15,13.10
2016,04,25,13,16,13.10
2016,04,25,13,17,13.20
2016,04,25,13,18,13.20
2016,04,25,13,19,13.10
2016,04,25,13,20,13.00
2016,04,25,13,21,13.00
2016,04,25,13,22,13.00
2016,04,25,13,23,13.00
2016,04,25,13,24,13.10
2016,04,25,13,25,13.10
2016,04,25,13,26,13.10
2016,04,25,13,27,13.10
2016,04,25,13,28,13.10
2016,04,25,13,29,13.20
2016,04,25,13,30,13.30
2016,04,25,13,31,13.30
2016,04,25,13,32,13.30
2016,04,25,13,33,13.30
2016,04,25,13,34,13.30
2016,04,25,13,35,13.40
2016,04,25,13,36,13.40
2016,04,25,13,37,13.40
2016,04,25,13,38,13.40
2016,04,25,13,39,13.50
2016,04,25,13,40,13.50
2016,04,25,13,41,13.50
2016,04,25,13,42,13.50
2016,04,25,13,43,13.60
2016,04,25,13,44,13.60
2016,04,25,13,45,13.60
2016,04,25,13,46,13.60
2016,04,25,13,47,13.50
2016,04,25,13,48,13.60
2016,04,25,13,49,13.60
2016,04,25,13,50,13.60
2016,04,25,13,51,13.70
2016,04,25,13,52,13.70
2016,04,25,13,53,13.60
2016,04,25,13,54,13.60
2016,04,25,13,55,13.60
2016,04,25,13,56,13.50
2016,04,25,13,57,13.50
2016,04,25,13,58,13.40
2016,04,25,13,59,13.40
2016,04,25,14,00,13.50
2016,04,25,14,01,13.50
2016,04,25,14,02,13.60
2016,04,25,14,03,13.70
2016,04,25,14,04,13.70
2016,04,25,14,05,13.70
2016,04,25,14,06,13.80
2016,04,25,14,07,13.80
2016,04,25,14,08,13.90
2016,04,25,14,09,13.90
2016,04,25,14,10,13.90
2016,04,25,14,11,13.90
2016,04,25,14,12,14.00
2016,04,25,14,13,14.00
2016,04,25,14,14,14.10
2016,04,25,14,15,14.10
2016,04,25,14,16,14.10
2016,04,25,14,17,14.10
2016,04,25,14,18,14.00
2016,04,25,14,19,14.00
2016,04,25,14,20,13.90
2016,04,25,14,21,13.90
2016,04,25,14,22,14.00
2016,04,25,14,23,14.00
2016,04,25,14,24,14.10
2016,04,25,14,25,14.10
2016,04,25,14,26,14.10
2016,04,25,14,27,14.00
2016,04,25,14,28,13.90
2016,04,25,14,29,13.90
2016,04,25,14,30,13.90
2016,04,25,14,31,13.90
2016,04,25,14,32,13.90
2016,04,25,14,33,13.90
2016,04,25,14,34,13.80
2016,04,25,14,35,13.70
2016,04,25,14,36,13.70
2016,04,25,14,37,13.70
2016,04,25,14,38,13.70
2016,04,25,14,39,13.60
2016,04,25,14,40,13.70
2016,04,25,14,41,13.70
2016,04,25,14,42,13.70
2016,04,25,14,43,13.60
2016,04,25,14,44,13.70
2016,04,25,14,45,13.70
2016,04,25,14,46,13.70
2016,04,25,14,47,13.70
2016,04,25,14,48,13.70
2016,04,25,14,49,13.70
2016,04,25,14,50,13.70
2016,04,25,14,51,13.70
2016,04,25,14,52,13.80
2016,04,25,14,53,13.80
2016,04,25,14,54,13.80
2016,04,25,14,55,13.80
2016,04,25,14,56,13.80
2016,04,25,14,57,13.80
2016,04,25,14,58,13.80
2016,04,25,14,59,13.90
2016,04,25,15,00,13.90
2016,04,25,15,01,13.90
2016,04,25,15,02,13.90
2016,04,25,15,03,13.90
2016,04,25,15,04,14.00
2016,04,25,15,05,14.10
2016,04,25,15,06,14.20
2016,04,25,15,07,14.20
2016,04,25,15,08,14.20
2016,04,25,15,09,14.20
2016,04,25,15,10,14.10
2016,04,25,15,11,14.10
2016,04,25,15,12,14.10
2016,04,25,15,13,14.10
2016,04,25,15,14,14.20
2016,04,25,15,15,14.30
2016,04,25,15,16,14.30
2016,04,25,15,17,14.40
2016,04,25,15,18,14.40
2016,04,25,15,19,14.40
2016,04,25,15,20,14.40
2016,04,25,15,21,14.40
2016,04,25,15,22,14.40
2016,04,25,15,23,14.40
2016,04,25,15,24,14.50
2016,04,25,15,25,14.50
2016,04,25,15,26,14.60
2016,04,25,15,27,14.60
2016,04,25,15,28,14.70
2016,04,25,15,29,14.70
2016,04,25,15,30,14.70
2016,04,25,15,31,14.60
2016,04,25,15,32,14.60
2016,04,25,15,33,14.60
2016,04,25,15,34,14.60
2016,04,25,15,35,14.60
2016,04,25,15,36,14.60
2016,04,25,15,37,14.60
2016,04,25,15,38,14.70
2016,04,25,15,39,14.80
2016,04,25,15,40,14.90
2016,04,25,15,41,15.00
2016,04,25,15,42,15.00
2016,04,25,15,43,14.90
2016,04,25,15,44,14.90
2016,04,25,15,45,15.00
2016,04,25,15,46,15.00
2016,04,25,15,47,15.10
2016,04,25,15,48,15.20
2016,04,25,15,49,15.20
2016,04,25,15,50,15.20
2016,04,25,15,51,15.20
2016,04,25,15,52,15.20
2016,04,25,15,53,15.10
2016,04,25,15,54,15.00
2016,04,25,15,55,14.90
2016,04,25,15,56,14.90
2016,04,25,15,57,14.90
2016,04,25,15,58,14.90
2016,04,25,15,59,14.90
2016,04,25,16,00,14.90
2016,04,25,16,01,14.80
2016,04,25,16,02,14.80
2016,04,25,16,03,14.80
2016,04,25,16,04,14.80
2016,04,25,16,05,14.80
2016,04,25,16,06,14.90
2016,04,25,16,07,14.90
2016,04,25,16,08,14.80
2016,04,25,16,09,14.80
2016,04,25,16,10,14.80
2016,04,25,16,11,14.80
2016,04,25,16,12,14.70
2016,04,25,16,13,14.70
2016,04,25,16,14,14.70
2016,04,25,16,15,14.70
2016,04,25,16,16,14.70
2016,04,25,16,17,14.80
2016,04,25,16,18,14.80
2016,04,25,16,19,14.80
2016,04,25,16,20,14.80
2016,04,25,16,21,14.70
2016,04,25,16,22,14.70
2016,04,25,16,23,14.70
2016,04,25,16,24,14.60
2016,04,25,16,25,14.50
2016,04,25,16,26,14.40
2016,04,25,16,27,14.40
2016,04,25,16,28,14.40
2016,04,25,16,29,14.40
2016,04,25,16,30,14.40
2016,04,25,16,31,14.50
2016,04,25,16,32,14.50
2016,04,25,16,33,14.50
2016,04,25,16,34,14.50
2016,04,25,16,35,14.60
2016,04,25,16,36,14.50
2016,04,25,16,37,14.50
2016,04,25,16,38,14.50
2016,04,25,16,39,14.50
2016,04,25,16,40,14.60
2016,04,25,16,41,14.60
2016,04,25,16,42,14.70
2016,04,25,16,43,14.80
2016,04,25,16,44,14.80
2016,04,25,16,45,14.80
2016,04,25,16,46,14.80
2016,04,25,16,47,14.80
2016,04,25,16,48,14.90
2016,04,25,16,49,14.90
2016,04,25,16,50,15.00
2016,04,25,16,51,15.00
2016,04,25,16,52,14.90
2016,04,25,16,53,14.80
2016,04,25,16,54,14.80
2016,04,25,16,55,14.70
2016,04,25,16,56,14.80
2016,04,25,16,57,14.80
2016,04,25,16,58,14.80
2016,04,25,16,59,14.70
2016,04,25,17,00,14.70
2016,04,25,17,01,14.60
2016,04,25,17,02,14.60
2016,04,25,17,03,14.50
2016,04,25,17,04,14.50
2016,04,25,17,05,14.50
2016,04,25,17,06,14.40
2016,04,25,17,07,14.40
2016,04,25,17,08,14.40
2016,04,25,17,09,14.50
2016,04,25,17,10,14.60
2016,04,25,17,11,14.60
2016,04,25,17,12,14.70
2016,04,25,17,13,14.70
2016,04,25,17,14,14.70
2016,04,25,17,15,14.80
2016,04,25,17,16,14.80
2016,04,25,17,17,14.90
2016,04,25,17,18,15.00
2016,04,25,17,19,15.10
2016,04,25,17,20,15.20
2016,04,25,17,21,15.20
2016,04,25,17,22,15.20
2016,04,25,17,23,15.20
2016,04,25,17,24,15.20
2016,04,25,17,25,15.20
2016,04,25,17,26,15.10
2016,04,25,17,27,15.10
2016,04,25,17,28,15.00
2016,04,25,17,29,14.90
2016,04,25,17,30,14.90
2016,04,25,17,31,14.90
2016,04,25,17,32,14.90
2016,04,25,17,33,14.90
2016,04,25,17,34,14.80
2016,04,25,17,35,14.80
2016,04,25,17,36,14.80
2016,04,25,17,37,14.80
2016,04,25,17,38,14.70
2016,04,25,17,39,14.70
2016,04,25,17,40,14.70
2016,04,25,17,41,14.60
2016,04,25,17,42,14.50
2016,04,25,17,43,14.50
2016,04,25,17,44,14.40